Location: Unspecified
(51.5147°N, 7.4673°E)
Time: 03:12:50
(UTC+01:00)

A-11 Canister half - Pass Details

Date: 21 February 2026
Orbit: 1513 x 1687 km, 47.2° (Epoch: 13 March)

Event Time Altitude Azimuth Distance (km) Brightness Sun altitude
Rises 20:17:32 0° 219° (SW) 4,930 12.0 -22.6°
Reaches altitude 10° 20:20:55 10° 213° (SSW) 3,945 11.4 -23.1°
Maximum altitude 20:30:11 42° 147° (SSE) 2,234 9.5 -24.5°
Enters shadow 20:32:15 39° 120° (ESE) 2,345 9.4 -24.8°
Drops below altitude 10° 20:39:20 10° 81° (E) 3,893 - -25.9°
Sets 20:42:37 0° 75° (ENE) 4,860 - -26.4°
